Miscellaneous Local Product
Issued by NWS North Platte, NE

Home | Current Version | Previous Version | Graphics & Text | Print | Product List | Glossary On
Versions: 1 2 3 4 5 6 7 8 9 10 11 12 13 14 15 16 17 18 19 20 21 22 23 24 25 26 27 28 29 30 31 32 33 34 35 36 37 38 39 40 41 42 43 44 45 46 47 48 49 50
000
AXUS43 KLBF 141610
MISLBF


WESTERN AND NORTH CENTRAL NEBRASKA HOURLY WEATHER ROUNDUP
NATIONAL WEATHER SERVICE NORTH PLATTE NE
1000 AM CST SAT JAN 14 2017

NOTE: "FAIR" INDICATES FEW OR NO CLOUDS BELOW 12,000 FEET WITH NO
SIGNIFICANT WEATHER AND/OR OBSTRUCTIONS TO VISIBILITY.

NOTE: STATIONS NOT REPORTING VARIABLES SUCH AS SKY/WEATHER OR
PRESSURE ARE PROVIDED BY RAWS AND APRS NETWORKS AND ARE NOT UNDER
NATIONAL WEATHER SERVICE QUALITY CONTROL.

...OBSERVATIONS IN AND NEAR THE EASTERN PANHANDLE OF NEBRASKA...

CITY           SKY/WX    TMP DP  RH WIND       PRES   REMARKS
PINE RIDGE     CLOUDY    10   8  92 CALM      30.39R
CHADRON        CLOUDY    13   8  81 SW3       30.40R
ALLIANCE       SUNNY     21  18  88 CALM      30.37R
SIDNEY         CLOUDY    25  21  85 NW9       30.38R WCI  15
$$

...OBSERVATIONS IN NORTHERN NEBRASKA AND FAR SOUTHERN SOUTH DAKOTA...

CITY           SKY/WX    TMP DP  RH WIND       PRES   REMARKS
WINNER         FAIR      18  13  80 CALM      30.47R
VALENTINE      CLOUDY    14   9  80 W3        30.45R
THEDFORD       SUNNY     26  21  80 CALM      30.43R
AINSWORTH      CLOUDY    22  18  86 W5        30.44R WCI  15
O`NEILL        CLOUDY    18  13  81 NW5       30.48R WCI  11
ORD            CLOUDY    12   6  77 NW5       30.47R WCI   4
BROKEN BOW     CLOUDY    14   9  80 CALM      30.44R
VALENTINE NWR    N/A     20  16  83 CALM        N/A
BUTTE            N/A     19  15  83 CALM        N/A
HALSEY           N/A     22  16  77 CALM        N/A
SARGENT          N/A     15  11  83 W5          N/A  WCI   8
CHAMBERS         N/A     19  11  72 CALM        N/A
EWING            N/A     16  12  84 S3          N/A
$$

...OBSERVATIONS IN SOUTHWEST NEBRASKA AND FAR NORTHEAST COLORADO...

CITY           SKY/WX    TMP DP  RH WIND       PRES   REMARKS
WRAY           FAIR      25  21  86 SW3       30.40
HOLYOKE        FAIR      28  23  80 NW7       30.39S WCI  21
IMPERIAL       SUNNY     24  17  74 CALM      30.41R
OGALLALA       CLOUDY    21  17  86 W3        30.41R
NORTH PLATTE   CLOUDY    18  13  80 W5        30.43R WCI  11
MCCOOK         CLOUDY    19  14  81 W7        30.46R WCI  10
LEXINGTON      CLOUDY    22  15  74 W7        30.46R WCI  14
STAPLETON        N/A     17  14  87 CALM        N/A
GOTHENBURG       N/A     20  13  75 W3          N/A
CALLAWAY         N/A     18  14  83 N3          N/A
$$

...OBSERVATIONS IN CENTRAL LINCOLN COUNTY AREA...

CITY           SKY/WX    TMP DP  RH WIND       PRES   REMARKS
N.P. AIRPORT   CLOUDY    18  13  80 W5        30.43R WCI  11
N.P. DOWNTOWN    N/A     18  14  82 CALM        N/A
N.P. SOUTHEAST   N/A     18  13  79 CALM        N/A
N.P. HILLCREST   N/A     18  14  85 CALM        N/A
$$

...SOME OBSERVATIONS FROM AROUND THE REGION...

CITY           SKY/WX    TMP DP  RH WIND       PRES   REMARKS
LARAMIE        CLOUDY    17  11  77 CALM      30.31F
CHEYENNE       CLOUDY    31  23  72 W9        30.34R WCI  23
DENVER         CLOUDY    29  23  78 SW5       30.35R WCI  24
AKRON          CLOUDY    26  23  88 W8        30.37R FOG     WCI  18
SCOTTSBLUFF    SUNNY     23  18  81 CALM      30.39R
RAPID CITY     SUNNY     17   2  51 CALM      30.38R
BISMARCK       CLOUDY   -12 -16  82 CALM      30.46S
PIERRE         CLOUDY     5   1  83 SW6       30.48R WCI  -6
SIOUX FALLS    CLOUDY    13   8  81 CALM      30.50R
OMAHA          CLOUDY    23  13  65 CALM      30.56R
GRAND ISLAND   CLOUDY    25  14  63 W5        30.48S WCI  19
KANSAS CITY    CLOUDY    27  20  75 N3        30.55R
WICHITA        CLOUDY    31  17  56 N7        30.54R WCI  24
OKLAHOMA CITY  CLOUDY    30  29  96 N10       30.49R FOG     WCI  21
DALLAS         FOG       40  40 100 N9        30.45R VSB 1   WCI  34
AMARILLO       CLOUDY    31  30  96 N8        30.39R FOG     WCI  23
DODGE CITY     CLOUDY    28  13  53 E5        30.47R WCI  23
HAYS           MOSUNNY   27  14  58 CALM      30.52R
GOODLAND       CLOUDY    26  18  71 W3        30.42R
$$




USA.gov is the U.S. government's official web portal to all federal, state and local government web resources and services.